Simultaneous Nadir Overpasses (SNOs) Predictions

Prediction of SNOs between AQUA and NPP Satellite Orbit:

Table of predicted SNOs for the next 14.0 days since TLE Epoch: 5/29/2020
Index Date (AQUA) Time (AQUA) Lat,Lon (AQUA) SZA (AQUA ) Date (NPP) Time (NPP) Lat,Lon (NPP) SZA (NPP ) Distance(km) Time Diff (sec)
1 05/29/2020 22:38:08 76.23, 80.22 75.49 05/29/2020 22:38:02 76.23, 80.29 75.48 1.87 6
2 05/29/2020 23:27:21 -76.94,-109.71 105.37 05/29/2020 23:28:32 -76.94,-109.72 105.43 0.27 71
3 06/01/2020 14:05:35 -75.11, 25.18 103.56 06/01/2020 14:04:37 -75.10, 25.10 103.49 2.55 58
4 06/01/2020 14:54:33 76.44,-163.21 74.90 06/01/2020 14:54:52 76.44,-163.19 74.88 0.59 19
5 06/04/2020 06:21:49 -75.82, 143.07 104.67 06/04/2020 06:21:15 -75.83, 143.13 104.66 1.77 34
6 06/04/2020 07:10:57 76.64, -46.64 74.36 06/04/2020 07:11:41 76.64, -46.66 74.32 0.40 44
7 06/06/2020 22:38:13 -76.08,-100.27 105.22 06/06/2020 22:38:04 -76.08,-100.24 105.22 0.67 9
8 06/06/2020 23:27:21 76.89, 70.10 73.81 06/06/2020 23:28:30 76.88, 70.07 73.77 1.07 69
9 06/09/2020 14:05:34 75.08,-154.90 75.74 06/09/2020 14:04:34 75.07,-154.96 75.81 2.20 60
10 06/09/2020 14:54:37 -76.32, 16.40 105.71 06/09/2020 14:54:53 -76.32, 16.40 105.73 0.09 16
11 06/12/2020 06:21:56 75.43, -38.06 75.19 06/12/2020 06:21:21 75.42, -38.15 75.25 2.70 35




NCC Satellite Simultaneous Nadir Overpasses (SNOs) Prediction Service
